Terminal Aerodrome Forecast
Issued by NWS Bismarck, ND

Home | Current Version | Previous Version | Text Only | Print | Product List | Glossary On
Versions: 1 2 3 4 5 6 7 8 9 10 11 12 13 14
826
FTUS43 KBIS 240309 AAA
TAFISN
TAF AMD
KISN 240309Z 2403/2424 25012KT P6SM SCT080
     FM241000 28009KT P6SM BKN060
     FM241400 29013G19KT P6SM BKN035
     FM241900 32022G29KT P6SM BKN020=

USA.gov is the U.S. government's official web portal to all federal, state and local government web resources and services.